DLH12RM CYUL-EDDF

Flight info

Callsign DLH12RM
Flight time N/A
Altitude 37000
Route ANTEG DCT OBRON DCT MOBUB DCT EBMOS DCT IMORI DCT KITOP DCT CEFOU N645B RIKAL/M081F390 DCT 53N050W 54N040W 55N030W 56N020W DCT PIKIL DCT SOVED/N0468F390 DCT LUTOV DCT BELOX L603 DOLAS DCT NAVPI DCT NOLRU DCT DIXAT DIXAT1A
Aircraft A343/H-SDE2E3FGHIJ4J5M1RWXY/LB1D1

Departure

Time 2026-05-06 12:57
Airport Montreal / Pierre Elliott Trudeau International Airport (CYUL)

Arrival

Time N/A
Airport Frankfurt Main Airport (EDDF)
Time Latitude Longitude Altitude Speed Heading
2026-05-06 12:19 45.45969 -73.75829 109 ft 0 kts 144°
2026-05-06 12:43 45.45970 -73.75829 109 ft 1 kts 144°
2026-05-06 12:43 45.45988 -73.75848 108 ft 4 kts 144°
2026-05-06 12:44 45.46010 -73.75870 107 ft 4 kts 144°
2026-05-06 12:44 45.46032 -73.75891 107 ft 4 kts 139°
2026-05-06 12:44 45.46046 -73.75919 106 ft 4 kts 98°
2026-05-06 12:44 45.46044 -73.75956 105 ft 4 kts 74°
2026-05-06 12:45 45.46041 -73.75972 105 ft 1 kts 74°
2026-05-06 12:48 45.46041 -73.75971 105 ft 0 kts 73°
2026-05-06 12:48 45.46046 -73.75951 105 ft 8 kts 73°
2026-05-06 12:48 45.46055 -73.75842 107 ft 12 kts 87°
2026-05-06 12:48 45.46080 -73.75736 107 ft 11 kts 31°
2026-05-06 12:49 45.46131 -73.75651 107 ft 15 kts 76°
2026-05-06 12:49 45.46138 -73.75467 106 ft 20 kts 88°
2026-05-06 12:49 45.46141 -73.75266 105 ft 21 kts 90°
2026-05-06 12:49 45.46150 -73.75064 108 ft 20 kts 87°
2026-05-06 12:50 45.46156 -73.74867 107 ft 20 kts 88°
2026-05-06 12:50 45.46162 -73.74661 107 ft 21 kts 88°
2026-05-06 12:50 45.46131 -73.74470 107 ft 20 kts 92°
2026-05-06 12:50 45.46134 -73.74271 107 ft 20 kts 87°
2026-05-06 12:51 45.46141 -73.74091 108 ft 15 kts 82°
2026-05-06 12:51 45.46202 -73.73976 109 ft 15 kts 43°
2026-05-06 12:51 45.46280 -73.73872 109 ft 16 kts 42°
2026-05-06 12:51 45.46381 -73.73741 108 ft 21 kts 42°
2026-05-06 12:52 45.46488 -73.73600 111 ft 21 kts 43°
2026-05-06 12:52 45.46595 -73.73460 111 ft 21 kts 43°
2026-05-06 12:52 45.46701 -73.73321 112 ft 21 kts 43°
2026-05-06 12:52 45.46806 -73.73183 113 ft 20 kts 42°
2026-05-06 12:53 45.46910 -73.73047 117 ft 20 kts 43°
2026-05-06 12:53 45.47015 -73.72910 116 ft 20 kts 43°
2026-05-06 12:53 45.47119 -73.72773 117 ft 21 kts 43°
2026-05-06 12:53 45.47224 -73.72636 119 ft 21 kts 43°
2026-05-06 12:54 45.47333 -73.72494 118 ft 21 kts 42°
2026-05-06 12:54 45.47443 -73.72349 121 ft 22 kts 43°
2026-05-06 12:54 45.47554 -73.72204 119 ft 22 kts 43°
2026-05-06 12:54 45.47666 -73.72056 120 ft 22 kts 43°
2026-05-06 12:55 45.47777 -73.71911 121 ft 20 kts 43°
2026-05-06 12:55 45.47856 -73.71804 121 ft 15 kts 49°
2026-05-06 12:55 45.47851 -73.71678 122 ft 13 kts 120°
2026-05-06 12:55 45.47787 -73.71590 123 ft 13 kts 137°
2026-05-06 12:56 45.47724 -73.71572 126 ft 9 kts 210°
2026-05-06 12:56 45.47701 -73.71603 125 ft 0 kts 222°
2026-05-06 12:56 45.47697 -73.71608 125 ft 5 kts 223°
2026-05-06 12:57 45.47566 -73.71780 124 ft 57 kts 222°
2026-05-06 12:57 45.47108 -73.72379 117 ft 119 kts 223°
2026-05-06 12:57 45.46375 -73.73341 219 ft 159 kts 223°
2026-05-06 12:57 45.45546 -73.74411 862 ft 162 kts 222°
2026-05-06 12:58 45.44674 -73.75451 1498 ft 178 kts 216°
2026-05-06 12:58 45.43365 -73.76338 1142 ft 244 kts 197°
2026-05-06 12:58 45.41647 -73.76787 2158 ft 247 kts 186°
2026-05-06 12:58 45.39918 -73.76766 3415 ft 251 kts 176°
2026-05-06 12:59 45.38193 -73.76264 4423 ft 263 kts 160°
2026-05-06 12:59 45.36705 -73.74722 5507 ft 271 kts 132°
2026-05-06 12:59 45.35845 -73.72298 6595 ft 283 kts 107°
2026-05-06 12:59 45.35783 -73.69457 7557 ft 296 kts 84°
2026-05-06 13:00 45.36243 -73.66553 8477 ft 307 kts 74°
2026-05-06 13:00 45.37336 -73.63939 9347 ft 319 kts 47°
2026-05-06 13:00 45.39119 -73.62020 10172 ft 327 kts 25°
2026-05-06 13:00 45.41118 -73.60634 10828 ft 336 kts 21°
2026-05-06 13:01 45.43349 -73.59204 11480 ft 350 kts 20°
2026-05-06 13:01 45.45629 -73.57769 11860 ft 370 kts 20°
2026-05-06 13:01 45.48021 -73.56278 12216 ft 389 kts 20°
2026-05-06 13:01 45.50588 -73.54886 12634 ft 403 kts 14°
2026-05-06 13:02 45.53275 -73.53663 13252 ft 412 kts 13°
2026-05-06 13:02 45.56049 -73.52486 13932 ft 419 kts 12°
2026-05-06 13:02 45.58855 -73.51342 14603 ft 424 kts 11°
2026-05-06 13:02 45.61713 -73.50197 15313 ft 428 kts 11°
2026-05-06 13:03 45.64605 -73.49042 16007 ft 433 kts 11°
2026-05-06 13:03 45.67475 -73.47893 16702 ft 438 kts 11°
2026-05-06 13:03 45.70423 -73.46706 17416 ft 442 kts 11°
2026-05-06 13:03 45.73385 -73.45508 18121 ft 447 kts 11°
2026-05-06 13:04 45.76361 -73.44300 18727 ft 451 kts 11°
2026-05-06 13:04 45.79406 -73.43062 19289 ft 457 kts 11°
2026-05-06 13:04 45.82487 -73.41802 19878 ft 462 kts 11°
2026-05-06 13:04 45.85506 -73.40092 20473 ft 472 kts 24°
2026-05-06 13:05 45.88264 -73.37451 21087 ft 480 kts 37°
2026-05-06 13:05 45.90784 -73.34246 21669 ft 486 kts 43°
2026-05-06 13:05 45.93164 -73.30756 22241 ft 491 kts 46°
2026-05-06 13:05 45.95479 -73.27124 22822 ft 495 kts 47°
2026-05-06 13:06 45.97759 -73.23479 23373 ft 498 kts 47°
2026-05-06 13:06 46.00096 -73.19747 23829 ft 503 kts 47°
2026-05-06 13:06 46.02462 -73.16005 24222 ft 507 kts 46°
2026-05-06 13:06 46.04854 -73.12259 24607 ft 511 kts 46°
2026-05-06 13:07 46.07286 -73.08479 24945 ft 517 kts 45°
2026-05-06 13:07 46.09755 -73.04658 25274 ft 523 kts 45°
2026-05-06 13:07 46.11409 -73.02101 25581 ft 525 kts 45°
2026-05-06 13:07 46.14753 -72.96925 26139 ft 529 kts 45°
2026-05-06 13:08 46.17128 -72.92913 26535 ft 534 kts 53°
2026-05-06 13:08 46.19219 -72.88464 26927 ft 537 kts 57°
2026-05-06 13:08 46.21223 -72.83881 27304 ft 541 kts 58°
2026-05-06 13:08 46.22528 -72.80793 27552 ft 543 kts 59°
2026-05-06 13:09 46.24475 -72.76095 27919 ft 547 kts 59°
2026-05-06 13:09 46.26420 -72.71356 28276 ft 550 kts 59°
2026-05-06 13:09 46.28369 -72.66594 28625 ft 554 kts 59°
2026-05-06 13:09 46.30341 -72.61782 28905 ft 558 kts 59°
2026-05-06 13:10 46.32332 -72.56934 29259 ft 561 kts 59°
2026-05-06 13:10 46.34322 -72.52092 29605 ft 564 kts 59°
2026-05-06 13:10 46.36337 -72.47187 29974 ft 565 kts 59°
2026-05-06 13:10 46.38319 -72.42360 30277 ft 567 kts 59°
2026-05-06 13:11 46.40338 -72.37436 30554 ft 569 kts 59°
2026-05-06 13:11 46.42355 -72.32505 30955 ft 569 kts 59°
2026-05-06 13:11 46.44376 -72.27557 31273 ft 570 kts 59°
2026-05-06 13:11 46.46397 -72.22596 31595 ft 571 kts 59°
2026-05-06 13:12 46.48418 -72.17628 32005 ft 570 kts 59°
2026-05-06 13:12 46.50424 -72.12689 32387 ft 569 kts 59°
2026-05-06 13:12 46.52431 -72.07736 32767 ft 569 kts 59°
2026-05-06 13:12 46.54402 -72.02866 33095 ft 569 kts 60°
2026-05-06 13:13 46.56409 -71.97905 33381 ft 567 kts 60°
2026-05-06 13:13 46.58390 -71.92995 33642 ft 566 kts 60°